IRIDIUM 145

Last updated on Tue Sep 22 2026 00:03:21 GMT+0000 (Coordinated Universal Time)

1 43253U 18030E 26264.47309430 .00000012 00000+0 -28386-5 0 9994 2 43253 86.3917 250.1265 0001873 86.3454 273.7956 14.34217379443925
UTC large
Height (km)
Speed (km/s)
/
Latitude / Longitude
Inclination (degrees)
Orbital Period (minutes)
Azimuth
Elevation
Range (km)
Doppler Factor

Next 0 passes for location: London (51.5072 / 0.1276)

No passes found over London.
IRIDIUM 145